Back to catalog

FENGYUN 1C DEB

AliveSSO
NORAD 29821·DEBRIS·🇨🇳 China

Launched May 10, 1999 from Taiyuan Satellite Launch Center

Loading…

Next Passes (next 24 hours)

TLE

FreshSource: Space-Track

Epoch: Sep 14, 2026, 02:19 UTC

1 29821U 99025DP  26257.09687299  .00001070  00000-0  31572-3 0  9998
2 29821  98.8391 314.2397 0372097  59.6071 332.2442 14.12194158  3961

Track FENGYUN 1C DEB in real time with AllMySat

Download on the App Store